Regional Weather Roundup
Issued by NWS

Home | Current Version | Previous Version | Text Only | Print | Product List | Glossary Off
Versions: 1 2 3 4 5 6 7 8 9 10 11 12 13 14 15 16 17 18 19 20 21 22 23 24 25 26 27

000
ASUS45 KSLC 190710
RWRUT

UTAH REGIONAL WEATHER ROUNDUP
NATIONAL WEATHER SERVICE SALT LAKE CITY UT
100 AM MDT SAT AUG 19 2017

UTZ001>011-023>025-190800-

NORTHERN UTAH

CITY           SKY/WX    TMP DP  RH WIND       PRES   REMARKS
BRIGHAM CITY   CLEAR     67  42  40 CALM      30.08S
HILL AFB       CLEAR     69  32  25 E16       30.10S
LOGAN          CLEAR     65  41  41 CALM      30.10S
OGDEN          CLEAR     65  35  33 SW3       30.07R
SALT LAKE CITY CLEAR     73  40  30 SE8       30.06R
TOOELE VALLEY  CLEAR     64  34  32 S10       30.07S
WENDOVER       CLEAR     72  35  25 CALM      30.06R
HEBER CITY     CLEAR     54  41  62 CALM      30.19S
WEST JORDAN    CLEAR     70  43  38 SW7       30.10S

$$

UTZ011>015-024>027-190800-

CENTRAL/NORTHEAST UTAH

CITY           SKY/WX    TMP DP  RH WIND       PRES   REMARKS
PROVO AIRPORT  CLEAR     66  46  48 E3        30.10S
MOAB/CANYONLAN CLEAR     72  28  19 NW9       30.04S
DELTA          CLEAR     66  34  30 E3        30.09S
PRICE          PTCLDY    67  36  31 CALM      30.18R
ROOSEVELT      CLEAR     61  43  51 W8        30.14F
VERNAL         CLEAR     68  42  38 NW8       30.12S

$$

UTZ013>016-019>022-027-190800-

SOUTHERN UTAH

CITY           SKY/WX    TMP DP  RH WIND       PRES   REMARKS
BRYCE CANYON   CLEAR     52  39  61 W9        30.35S
CEDAR CITY     CLEAR     70  39  32 SE9       30.17S
MILFORD        PTCLDY    70  34  26 W8        30.11S
ST GEORGE      SUNNY     80  43  26 SE8       29.97R
HANKSVILLE     CLEAR     68  30  24 NE3       30.08R
BLANDING       CLEAR     64  33  31 N7        30.25S

$$

REGIONAL REPORTS     COLORADO/ARIZONA

CITY           SKY/WX    TMP DP  RH WIND       PRES   REMARKS
CRAIG, CO      CLEAR     51  38  60 SE5       30.22R
GRAND JUNCTION CLEAR     67  33  28 E8        30.09S
RIFLE, CO      CLEAR     62  34  35 E7        30.18R
MONTROSE, CO   CLEAR     66  39  37 SE13      30.21S
CORTEZ, CO     CLEAR     54  39  57 E5        30.21S
COLORADO CITY    N/A     61  46  59 S3        30.16R
PAGE, AZ       CLEAR     81  33  17 S6        30.05R
GRAND CANYON   CLEAR     50  34  54 CALM      30.31R
KINGMAN, AZ    CLEAR     73  35  25 E7        30.05S
FLAGSTAFF, AZ  CLEAR     53  36  52 S3        30.34S

$$

REGIONAL REPORTS    NEVADA/IDAHO/WYOMING

CITY           SKY/WX    TMP DP  RH WIND       PRES   REMARKS
LAS VEGAS, NV  CLEAR     90  37  15 SW5       29.91R
ELY, NY        PTCLDY    61  31  32 S8        30.23S
ELKO, NV       CLEAR     62  22  21 E7        30.13S
POCATELLO, ID  CLEAR     61  30  31 S5        30.08S
BURLEY, ID     CLEAR     58  39  49 CALM      30.05S
FORT BRIDGER,    N/A     64  27  25 SW10      30.30S
EVANSTON, WY   CLOUDY    59  30  33 SE6       30.29S
ROCK SPRINGS,  CLEAR     61  28  28 SW8       30.24S
KEMMERER, WY     N/A     52  32  46 CALM      30.30S

$$




USA.gov is the U.S. government's official web portal to all federal, state and local government web resources and services.